Zurück zum Katalog

FENGYUN 1C DEB

AktivPO
NORAD 30452·DEBRIS·🇨🇳 China

Gestartet May 10, 1999 von Taiyuan Satellite Launch Center

Loading…

Nächste Überflüge (nächste 24 Stunden)

TLE

AktuellSource: Space-Track

Epoche: Sep 14, 2026, 11:19 UTC

1 30452U 99025AFP 26257.47182551  .00012160  00000-0  18010-2 0  9996
2 30452  99.3366  80.5856 0040549 125.1901 265.1678 14.74753857 21442

Verfolge FENGYUN 1C DEB in Echtzeit mit AllMySat

Download on the App Store